Latest Weather Observations for Gannett Cay

IDQ60801

Issued at 8:02 pm EST Friday 24 March 2017 (issued every 30 minutes, with the page automatically refreshed every 10 minutes)

About weather observations | Map of weather stations | Latest weather observations for QLD | Other Formats
Station Details ID: 200831 Name: GANNET CAY Lat: -21.98 Lon: 152.47 Height: 2.3 m
Data from the previous 72 hours. | See also: Recent months for locations in Queensland
Date/Time
EST
Temp
°C
App
Temp
°C
Dew
Point
°C
Rel
Hum
%
Delta-T
°C
Wind Press
QNH
hPa
Press
MSL
hPa
Rain since
9am
mm
Dir  Spd
km/h
Gust
km/h
Spd
kts
Gust
kts
24/08:00pm 28.0 - - - - E 37 43 20 23 1010.8 - -
24/07:30pm 27.7 - - - - E 37 43 20 23 1010.5 - -
24/07:29pm 27.9 - - - - E 37 41 20 22 1010.5 1010.6 -
24/07:00pm 27.7 - - - - E 39 43 21 23 1010.4 - -
24/06:30pm 27.9 - - - - E 37 43 20 23 1010.2 - -
24/06:29pm 27.9 - - - - E 37 - 20 - - 1010.3 -
24/06:00pm 27.9 - - - - E 39 46 21 25 1010.0 - -
24/05:30pm 27.6 - - - - E 39 43 21 23 1009.7 - -
24/05:29pm 28.0 - - - - E 39 - 21 - - 1009.8 -
24/05:00pm 28.1 - - - - E 35 43 19 23 1009.3 - -
24/04:30pm 27.8 - - - - ESE 35 43 19 23 1009.1 - -
24/04:29pm 27.9 - - - - ESE 35 - 19 - - 1009.3 -
24/04:00pm 28.1 - - - - ESE 37 41 20 22 1009.0 - -
24/03:30pm 28.0 - - - - E 35 39 19 21 1009.0 - -
24/03:29pm 28.1 - - - - E 35 - 19 - - 1009.2 -
24/03:00pm 27.8 - - - - ESE 35 41 19 22 1009.3 - -
24/02:30pm 28.3 - - - - E 35 41 19 22 1009.7 - -
24/02:29pm 28.1 - - - - E 35 - 19 - - 1009.7 -
24/02:00pm 28.0 - - - - E 37 43 20 23 1009.9 - -
24/01:30pm 28.1 - - - - E 35 41 19 22 1010.3 - -
24/01:29pm 28.1 - - - - E 35 - 19 - - 1010.4 -
24/01:00pm 28.0 - - - - E 35 41 19 22 1010.6 - -
24/12:30pm 27.9 - - - - E 37 43 20 23 1010.9 - -
24/12:29pm 27.9 - - - - E 37 - 20 - - 1011.0 -
24/12:00pm 28.0 - - - - ESE 41 46 22 25 1011.4 - -
24/11:30am 27.6 - - - - ESE 37 43 20 23 1011.9 - -
24/11:29am 27.7 - - - - ESE 37 - 20 - - 1012.0 -
24/11:00am 27.9 - - - - ESE 35 39 19 21 1012.3 - -
24/10:30am 28.1 - - - - E 39 44 21 24 1012.4 - -
24/10:29am 27.8 - - - - E 39 - 21 - - 1012.6 -
24/10:00am 27.4 - - - - ESE 39 43 21 23 1012.6 - -
24/09:30am 27.9 - - - - ESE 35 41 19 22 1012.6 - -
24/09:29am 28.0 - - - - ESE 37 - 20 - - 1012.7 -
24/09:00am 27.9 - - - - E 37 43 20 23 1012.4 - -
24/08:30am 27.7 - - - - E 33 39 18 21 1012.3 - -
24/08:29am 27.8 - - - - E 33 - 18 - - 1012.4 -
24/08:00am 27.8 - - - - E 35 41 19 22 1012.1 - -
24/07:30am 27.7 - - - - E 35 41 19 22 1011.8 - -
24/07:29am 27.7 - - - - E 33 - 18 - - 1011.9 -
24/07:00am 27.7 - - - - E 37 41 20 22 1011.5 - -
24/06:30am 27.7 - - - - E 35 43 19 23 1011.1 - -
24/06:29am 27.8 - - - - E 37 - 20 - - 1011.2 -
24/06:00am 27.7 - - - - E 37 41 20 22 1011.2 - -
24/05:30am 27.5 - - - - E 35 41 19 22 1011.0 - -
24/05:29am 27.5 - - - - E 35 - 19 - - 1011.1 -
24/05:00am 27.7 - - - - E 35 39 19 21 1010.7 - -
24/04:30am 27.5 - - - - E 35 39 19 21 1010.7 - -
24/04:29am 27.4 - - - - E 33 - 18 - - 1010.8 -
24/04:00am 27.8 - - - - E 33 37 18 20 1010.6 - -
24/03:30am 27.5 - - - - E 32 35 17 19 1010.6 - -
24/03:29am 27.5 - - - - E 32 - 17 - - 1010.7 -
24/03:00am 27.7 - - - - E 30 35 16 19 1010.4 - -
24/02:30am 27.6 - - - - E 32 35 17 19 1010.5 - -
24/02:29am 27.6 - - - - E 32 - 17 - - 1010.6 -
24/02:00am 27.8 - - - - E 32 35 17 19 1010.7 - -
24/01:30am 27.6 - - - - E 32 37 17 20 1011.0 - -
24/01:29am 27.8 - - - - E 32 - 17 - - 1011.1 -
24/01:00am 27.7 - - - - E 33 37 18 20 1011.4 - -
24/12:30am 27.8 - - - - E 30 35 16 19 1011.7 - -
24/12:29am 27.7 - - - - E 30 - 16 - - 1011.8 -
24/12:00am 27.9 - - - - E 28 32 15 17 1012.0 - -
 
Date/Time
EST
Temp
°C
App
Temp
°C
Dew
Point
°C
Rel
Hum
%
Delta-T
°C
Wind Press
QNH
hPa
Press
MSL
hPa
Rain since
9am
mm
Dir  Spd
km/h
Gust
km/h
Spd
kts
Gust
kts
23/11:30pm 28.0 - - - - E 28 33 15 18 1012.2 - -
23/11:29pm 27.9 - - - - E 28 - 15 - - 1012.3 -
23/11:00pm 27.9 - - - - ENE 32 35 17 19 1012.4 - -
23/10:30pm 28.1 - - - - ENE 30 35 16 19 1012.6 - -
23/10:29pm 28.0 - - - - ENE 30 - 16 - - 1012.7 -
23/10:00pm 28.1 - - - - ENE 33 35 18 19 1012.7 - -
23/09:30pm 28.1 - - - - ENE 30 35 16 19 1012.7 - -
23/09:29pm 28.1 - - - - ENE 30 - 16 - - 1012.8 -
23/09:00pm 28.0 - - - - E 28 33 15 18 1012.7 - -
23/08:30pm 27.7 - - - - E 30 33 16 18 1012.6 - -
23/08:29pm 27.7 - - - - E 30 - 16 - - 1012.7 -
23/08:00pm 27.7 - - - - E 28 33 15 18 1012.5 - -
23/07:30pm 27.7 - - - - E 28 33 15 18 1012.3 - -
23/07:29pm 27.7 - - - - E 28 - 15 - - 1012.4 -
23/07:00pm 27.1 - - - - E 26 30 14 16 1012.2 - -
23/06:30pm 27.3 - - - - E 26 30 14 16 1012.1 - -
23/06:29pm 27.3 - - - - E 26 - 14 - - 1012.2 -
23/06:00pm 26.8 - - - - ESE 24 28 13 15 1011.8 - -
23/05:30pm 27.3 - - - - E 30 39 16 21 1011.9 - -
23/05:29pm 27.0 - - - - E 30 - 16 - - 1012.0 -
23/05:00pm 27.7 - - - - E 28 32 15 17 1011.8 - -
23/04:30pm 27.9 - - - - ESE 30 33 16 18 1011.5 - -
23/04:29pm 27.7 - - - - ESE 30 - 16 - - 1011.6 -
23/04:00pm 27.8 - - - - E 32 33 17 18 1011.3 - -
23/03:30pm 27.9 - - - - E 32 35 17 19 1010.9 - -
23/03:29pm 27.7 - - - - E 32 - 17 - - 1011.0 -
23/03:00pm 28.0 - - - - E 32 35 17 19 1011.0 - -
23/02:30pm 27.5 - - - - E 30 35 16 19 1011.1 - -
23/02:29pm 27.5 - - - - E 30 - 16 - - 1011.3 -
23/02:00pm 27.8 - - - - E 30 35 16 19 1011.3 - -
23/01:30pm 27.3 - - - - E 33 41 18 22 1011.3 - -
23/01:29pm 27.1 - - - - E 33 - 18 - - 1011.4 -
23/01:00pm 27.8 - - - - E 32 35 17 19 1011.5 - -
23/12:30pm 27.8 - - - - ENE 33 39 18 21 1011.5 - -
23/12:29pm 27.8 - - - - ENE 32 - 17 - - 1011.7 -
23/12:00pm 28.0 - - - - ENE 33 39 18 21 1012.1 - -
23/11:30am 28.0 - - - - ENE 35 41 19 22 1012.4 - -
23/11:29am 27.8 - - - - ENE 35 - 19 - - 1012.6 -
23/11:00am 28.1 - - - - ENE 35 43 19 23 1012.7 - -
23/10:30am 27.9 - - - - ENE 37 43 20 23 1012.7 - -
23/10:29am 28.0 - - - - ENE 37 - 20 - - 1012.8 -
23/10:00am 27.9 - - - - ENE 35 41 19 22 1012.9 - -
23/09:30am 28.0 - - - - ENE 37 43 20 23 1012.9 - -
23/09:29am 28.0 - - - - ENE 37 - 20 - - 1013.0 -
23/09:00am 27.9 - - - - ENE 39 44 21 24 1012.8 - -
23/08:30am 27.8 - - - - ENE 39 44 21 24 1012.6 - -
23/08:29am 27.9 - - - - ENE 39 - 21 - - 1012.7 -
23/08:00am 27.6 - - - - ENE 39 44 21 24 1012.4 - -
23/07:30am 27.9 - - - - ENE 35 41 19 22 1012.1 - -
23/07:29am 27.8 - - - - ENE 35 - 19 - - 1012.2 -
23/07:00am 27.7 - - - - ENE 37 43 20 23 1012.0 - -
23/06:30am 28.0 - - - - ENE 35 41 19 22 1011.7 - -
23/06:29am 28.0 - - - - ENE 35 - 19 - - 1011.8 -
23/06:00am 27.8 - - - - ENE 39 44 21 24 1011.1 - -
23/05:30am 27.9 - - - - ENE 41 44 22 24 1010.7 - -
23/05:29am 27.9 - - - - ENE 41 - 22 - - 1010.8 -
23/05:00am 27.8 - - - - ENE 41 46 22 25 1010.4 - -
23/04:30am 27.9 - - - - ENE 37 43 20 23 1010.3 - -
23/04:29am 27.9 - - - - ENE 37 - 20 - - 1010.4 -
23/04:00am 27.9 - - - - ENE 35 41 19 22 1010.1 - -
23/03:30am 27.7 - - - - ENE 39 44 21 24 1009.9 - -
23/03:29am 27.8 - - - - ENE 39 - 21 - - 1010.0 -
23/03:00am 27.9 - - - - ENE 39 43 21 23 1009.8 - -
23/02:30am 27.7 - - - - ENE 41 46 22 25 1009.8 - -
23/02:29am 28.0 - - - - ENE 41 - 22 - - 1009.9 -
23/02:00am 27.7 - - - - ENE 37 41 20 22 1010.3 - -
23/01:30am 28.0 - - - - ENE 39 44 21 24 1010.5 - -
23/01:29am 27.8 - - - - ENE 39 - 21 - - 1010.6 -
23/01:00am 27.7 - - - - ENE 41 46 22 25 1010.9 - -
23/12:30am 27.7 - - - - ENE 41 44 22 24 1011.1 - -
23/12:29am 27.7 - - - - ENE 41 - 22 - - 1011.2 -
23/12:00am 27.9 - - - - NE 39 46 21 25 1011.6 - -
 
Date/Time
EST
Temp
°C
App
Temp
°C
Dew
Point
°C
Rel
Hum
%
Delta-T
°C
Wind Press
QNH
hPa
Press
MSL
hPa
Rain since
9am
mm
Dir  Spd
km/h
Gust
km/h
Spd
kts
Gust
kts
22/11:30pm 27.9 - - - - ENE 39 44 21 24 1011.6 - -
22/11:29pm 27.8 - - - - ENE 39 - 21 - - 1011.7 -
22/11:00pm 27.8 - - - - ENE 39 48 21 26 1011.8 - -
22/10:30pm 28.1 - - - - ENE 43 48 23 26 1011.6 - -
22/10:29pm 27.8 - - - - ENE 43 - 23 - - 1011.7 -
22/10:00pm 27.9 - - - - ENE 39 43 21 23 1011.8 - -
22/09:30pm 27.8 - - - - ENE 43 46 23 25 1011.9 - -
22/09:29pm 27.9 - - - - ENE 43 - 23 - - 1012.0 -
22/09:00pm 28.1 - - - - ENE 37 43 20 23 1011.9 - -
22/08:30pm 28.2 - - - - ENE 35 39 19 21 1011.6 - -
22/08:29pm 28.1 - - - - ENE 35 - 19 - - 1011.7 -
22/08:00pm 28.0 - - - - ENE 32 35 17 19 1011.2 - -
22/07:30pm 27.5 - - - - ENE 30 35 16 19 1011.0 - -
22/07:29pm 27.5 - - - - ENE 30 - 16 - - 1011.1 -
22/07:00pm 27.6 - - - - ENE 33 39 18 21 1011.0 - -
22/06:30pm 27.2 - - - - ENE 35 43 19 23 1010.5 - -
22/06:29pm 27.3 - - - - ENE 35 - 19 - - 1010.6 -
22/06:00pm 27.2 - - - - ENE 39 44 21 24 1010.1 - -
22/05:30pm 27.1 - - - - ENE 39 44 21 24 1009.7 - -
22/05:29pm 27.1 - - - - ENE 39 - 21 - - 1009.8 -
22/05:00pm 26.8 - - - - E 32 37 17 20 1009.8 - -
22/04:30pm 26.1 - - - - ENE 24 28 13 15 1010.0 - -
22/04:29pm 26.2 - - - - ENE 24 - 13 - - 1010.0 -
22/04:00pm 25.5 - - - - E 19 20 10 11 1010.0 - -
22/03:30pm 25.0 - - - - CALM 0 0 0 0 1010.5 - -
22/03:29pm 25.0 - - - - CALM 0 - 0 - - 1010.6 -
22/03:00pm 24.8 - - - - NW 17 20 9 11 1010.7 - -
22/02:30pm 24.8 - - - - WNW 7 9 4 5 1011.0 - -
22/02:29pm 24.8 - - - - WNW 7 - 4 - - 1011.1 -
22/02:00pm 24.7 - - - - ENE 19 24 10 13 1011.3 - -
22/01:30pm 25.1 - - - - N 13 17 7 9 1011.1 - -
22/01:29pm 25.0 - - - - N 13 - 7 - - 1011.2 -
22/01:00pm 25.0 - - - - N 9 13 5 7 1011.3 - -
22/12:30pm 24.6 - - - - N 35 43 19 23 1011.7 - -
22/12:29pm 24.5 - - - - N 35 - 19 - - 1011.8 -
22/12:22pm 24.2 - - - - N 39 48 21 26 1011.6 - -
22/12:14pm 25.4 - - - - NE 30 48 16 26 1011.8 - -
22/12:00pm 26.4 - - - - NE 24 26 13 14 1011.9 - -
22/11:30am 26.9 - - - - NE 26 32 14 17 1012.0 - -
22/11:29am 26.7 - - - - NE 26 - 14 - - 1012.1 -
22/11:00am 26.5 - - - - ENE 28 32 15 17 1012.0 - -
22/10:30am 26.5 - - - - NNE 13 15 7 8 1012.2 - -
22/10:29am 26.5 - - - - NNE 13 - 7 - - 1012.4 -
22/10:00am 25.9 - - - - NNE 20 26 11 14 1012.7 - -
22/09:30am 26.6 - - - - NNE 26 32 14 17 1012.9 - -
22/09:29am 26.6 - - - - NNE 26 - 14 - - 1013.0 -
22/09:00am 26.5 - - - - NE 30 35 16 19 1012.8 - -
22/08:30am 26.5 - - - - ENE 22 26 12 14 1012.8 - -
22/08:29am 26.5 - - - - ENE 22 - 12 - - 1012.9 -
22/08:00am 26.2 - - - - NE 22 30 12 16 1012.6 - -
22/07:30am 25.9 - - - - NE 43 48 23 26 1012.0 - -
22/07:29am 25.5 - - - - NE 43 - 23 - - 1012.1 -
22/07:21am 25.6 - - - - NE 44 48 24 26 1011.8 - -
22/07:00am 26.5 - - - - ENE 35 41 19 22 1011.6 - -
22/06:30am 25.7 - - - - NNE 30 39 16 21 1011.2 - -
22/06:29am 25.4 - - - - NNE 30 - 16 - - 1011.3 -
22/06:14am 26.3 - - - - NNE 35 44 19 24 1011.0 - -
22/06:00am 27.9 - - - - ENE 37 44 20 24 1010.7 - -
22/05:30am 28.0 - - - - E 37 41 20 22 1010.2 - -
22/05:29am 28.0 - - - - E 37 - 20 - - 1010.2 -
22/05:00am 27.9 - - - - E 33 43 18 23 1009.8 - -
22/04:54am 27.4 - - - - E 28 39 15 21 1009.8 - -
22/04:30am 26.1 - - - - E 17 20 9 11 1009.6 - -
22/04:29am 26.0 - - - - E 17 - 9 - - 1009.7 -
22/04:00am 25.3 - - - - NE 24 30 13 16 1009.9 - -
22/03:30am 25.6 - - - - N 33 37 18 20 1010.0 - -
22/03:29am 25.4 - - - - N 33 - 18 - - 1010.1 -
22/03:00am 25.2 - - - - NNE 43 52 23 28 1009.8 - -
22/02:30am 25.8 - - - - NNE 32 43 17 23 1010.0 - -
22/02:29am 25.8 - - - - NNE 33 - 18 - - 1010.1 -
22/02:03am 26.1 - - - - N 43 56 23 30 1010.1 - -
22/02:00am 26.2 - - - - NE 44 56 24 30 1010.0 - -
22/01:30am 27.2 - - - - NE 44 52 24 28 1010.2 - -
22/01:29am 27.3 - - - - NE 44 - 24 - - 1010.3 -
22/01:00am 28.0 - - - - ENE 44 52 24 28 1010.4 - -
22/12:30am 28.2 - - - - ENE 44 48 24 26 1010.6 - -
22/12:29am 28.1 - - - - ENE 43 - 23 - - 1010.7 -
22/12:00am 28.1 - - - - ENE 43 48 23 26 1010.8 - -
 
Date/Time
EST
Temp
°C
App
Temp
°C
Dew
Point
°C
Rel
Hum
%
Delta-T
°C
Wind Press
QNH
hPa
Press
MSL
hPa
Rain since
9am
mm
Dir  Spd
km/h
Gust
km/h
Spd
kts
Gust
kts
21/11:30pm 27.4 - - - - ENE 35 41 19 22 1011.2 - -
21/11:29pm 27.4 - - - - ENE 35 - 19 - - 1011.3 -
21/11:00pm 28.2 - - - - ENE 37 43 20 23 1011.3 - -
21/10:30pm 28.0 - - - - ENE 33 41 18 22 1011.6 - -
21/10:29pm 28.1 - - - - ENE 33 - 18 - - 1011.7 -
21/10:00pm 27.6 - - - - ENE 30 35 16 19 1011.7 - -
21/09:30pm 27.4 - - - - NE 32 37 17 20 1011.8 - -
21/09:29pm 27.4 - - - - E 19 - 10 - - 1011.9 -
21/09:00pm 25.5 - - - - E 22 30 12 16 1012.0 - -
21/08:44pm 25.5 - - - - ENE 35 39 19 21 1012.0 - -
21/08:30pm 26.7 - - - - E 2 6 1 3 1011.7 - -
21/08:29pm 26.9 - - - - E 2 - 1 - - 1011.8 -

Other Formats:

Comma delimited format used in spreadsheet applications
http://www.bom.gov.au/fwo/IDQ60801/IDQ60801.94379.axf

JavaScript Object Notation format (JSON) in row-major order
http://www.bom.gov.au/fwo/IDQ60801/IDQ60801.94379.json